Sherwood
DateTemperatureDew Point
09/01 - 12:00 PM77.4°55.8°
09/01 - 11:45 AM75.9°55.8°
09/01 - 11:30 AM75.7°55.3°
09/01 - 11:15 AM74.7°55.6°
09/01 - 11:00 AM73.7°55.2°
09/01 - 10:45 AM73.5°55.4°
09/01 - 10:30 AM71.5°54.5°
09/01 - 10:15 AM69.9°54.3°
09/01 - 10:00 AM68.5°54.6°
09/01 - 09:45 AM67.1°54.0°
09/01 - 09:30 AM66.0°53.9°
09/01 - 09:15 AM65.2°53.9°
09/01 - 09:00 AM63.8°53.4°
09/01 - 08:45 AM62.7°52.9°
09/01 - 08:30 AM62.0°52.9°
09/01 - 08:15 AM61.0°52.5°
09/01 - 08:00 AM59.7°51.9°
09/01 - 07:45 AM58.3°51.0°
09/01 - 07:30 AM56.0°50.9°
09/01 - 07:15 AM53.5°50.9°
09/01 - 07:00 AM52.2°49.3°
09/01 - 06:45 AM51.8°48.5°
09/01 - 06:30 AM52.0°48.3°
09/01 - 06:15 AM52.5°48.3°
09/01 - 06:00 AM53.1°49.5°
09/01 - 05:45 AM53.5°50.0°
09/01 - 05:30 AM54.1°50.4°
09/01 - 05:15 AM54.7°50.2°
09/01 - 05:00 AM55.4°50.2°
09/01 - 04:45 AM56.2°50.4°
09/01 - 04:30 AM56.7°49.8°
09/01 - 04:15 AM56.9°49.2°
09/01 - 04:00 AM56.6°50.4°
09/01 - 03:45 AM56.9°51.0°
09/01 - 03:30 AM57.6°50.7°
09/01 - 03:15 AM58.2°50.5°
09/01 - 03:00 AM58.5°49.9°
09/01 - 02:45 AM58.3°50.0°
09/01 - 02:30 AM58.5°48.9°
09/01 - 02:15 AM58.6°47.6°
09/01 - 02:00 AM58.6°46.5°
09/01 - 01:45 AM58.6°47.5°
09/01 - 01:30 AM59.1°47.7°
09/01 - 01:15 AM59.1°45.4°
09/01 - 01:00 AM58.5°43.8°
09/01 - 12:45 AM59.0°45.2°
09/01 - 12:30 AM60.4°46.8°
09/01 - 12:15 AM62.0°44.0°
09/01 - 12:00 AM63.1°44.4°
08/31 - 11:45 PM63.6°42.7°
08/31 - 11:30 PM64.1°40.5°
08/31 - 11:15 PM65.3°39.5°
08/31 - 11:00 PM66.9°41.2°
08/31 - 10:45 PM68.0°39.5°
08/31 - 10:30 PM67.8°39.2°
08/31 - 10:15 PM68.0°42.4°
08/31 - 10:00 PM67.1°41.5°
08/31 - 09:45 PM67.5°44.2°
08/31 - 09:30 PM68.5°45.1°
08/31 - 09:15 PM69.5°44.7°
08/31 - 09:00 PM70.0°45.7°
08/31 - 08:45 PM70.2°45.6°
08/31 - 08:30 PM71.0°46.8°
08/31 - 08:15 PM71.8°46.9°
08/31 - 08:00 PM72.7°48.2°
08/31 - 07:45 PM74.2°47.8°
08/31 - 07:30 PM75.6°47.3°
08/31 - 07:15 PM77.5°47.3°
08/31 - 07:00 PM79.1°47.0°
08/31 - 06:45 PM80.9°48.2°
08/31 - 06:30 PM83.3°48.4°
08/31 - 06:15 PM85.7°50.5°
08/31 - 06:00 PM87.1°52.8°
08/31 - 05:45 PM88.5°51.0°
08/31 - 05:30 PM89.9°50.5°
08/31 - 05:15 PM91.5°50.5°
08/31 - 05:00 PM92.6°49.3°
08/31 - 04:45 PM95.0°51.4°
08/31 - 04:30 PM95.6°52.8°
08/31 - 04:15 PM94.7°52.2°
08/31 - 04:00 PM94.3°53.2°
08/31 - 03:45 PM95.4°54.8°
08/31 - 03:30 PM95.4°53.9°
08/31 - 03:15 PM95.8°53.5°
08/31 - 03:00 PM93.9°52.5°
08/31 - 02:45 PM93.8°55.2°
08/31 - 02:30 PM94.1°55.6°
08/31 - 02:15 PM93.1°54.7°
08/31 - 02:00 PM91.8°53.2°
08/31 - 01:45 PM91.7°55.7°
08/31 - 01:30 PM91.4°55.7°
08/31 - 01:15 PM90.7°55.4°
08/31 - 01:00 PM90.5°55.6°
08/31 - 12:45 PM90.1°55.9°
08/31 - 12:30 PM89.4°55.5°
08/31 - 12:15 PM88.8°55.2°
08/31 - 12:00 PM87.9°55.4°
08/31 - 11:45 AM86.9°56.6°
08/31 - 11:30 AM86.0°56.4°
08/31 - 11:15 AM86.0°55.8°
08/31 - 11:00 AM84.9°54.9°
08/31 - 10:45 AM83.4°53.1°
08/31 - 10:30 AM82.4°53.1°
08/31 - 10:15 AM81.4°53.4°
08/31 - 10:00 AM80.2°52.9°
08/31 - 09:45 AM79.2°53.6°
08/31 - 09:30 AM77.6°53.3°
08/31 - 09:15 AM76.0°52.8°
08/31 - 09:00 AM74.7°53.7°
08/31 - 08:45 AM73.1°53.1°
08/31 - 08:30 AM71.7°52.6°
08/31 - 08:15 AM70.3°51.8°
08/31 - 08:00 AM68.7°51.1°
08/31 - 07:45 AM65.9°50.9°
08/31 - 07:30 AM62.4°50.2°
08/31 - 07:15 AM60.0°50.1°
08/31 - 07:00 AM58.2°48.6°
08/31 - 06:45 AM57.2°47.9°
08/31 - 06:30 AM57.2°47.1°
08/31 - 06:15 AM57.5°46.3°
08/31 - 06:00 AM57.5°45.3°
08/31 - 05:45 AM58.0°46.0°
08/31 - 05:30 AM57.8°44.9°
08/31 - 05:15 AM57.7°46.1°
08/31 - 05:00 AM57.8°46.6°
08/31 - 04:45 AM58.1°46.7°
08/31 - 04:30 AM58.8°48.2°
08/31 - 04:15 AM59.6°47.2°
08/31 - 04:00 AM60.0°45.5°
08/31 - 03:45 AM60.5°46.3°
08/31 - 03:30 AM61.1°45.7°
08/31 - 03:15 AM61.7°45.6°
08/31 - 03:00 AM62.1°44.1°
08/31 - 02:45 AM62.9°44.9°
08/31 - 02:30 AM63.7°45.3°
08/31 - 02:15 AM63.2°42.4°
08/31 - 02:00 AM63.0°45.7°
08/31 - 01:45 AM63.0°44.6°
08/31 - 01:30 AM63.1°45.0°
08/31 - 01:15 AM63.7°46.2°
08/31 - 01:00 AM64.1°44.8°
08/31 - 12:45 AM64.3°45.5°
08/31 - 12:30 AM64.8°45.5°
08/31 - 12:15 AM65.3°44.7°
08/31 - 12:00 AM65.9°47.2°
08/30 - 11:45 PM67.1°46.7°
08/30 - 11:30 PM67.9°44.1°
08/30 - 11:15 PM68.1°42.5°
08/30 - 11:00 PM68.7°46.2°
08/30 - 10:45 PM69.5°44.5°
08/30 - 10:30 PM70.3°46.4°
08/30 - 10:15 PM71.0°47.4°
08/30 - 10:00 PM71.6°48.1°
08/30 - 09:45 PM72.0°51.5°
08/30 - 09:30 PM72.4°55.0°
08/30 - 09:15 PM73.2°56.0°
08/30 - 09:00 PM73.5°55.0°
08/30 - 08:45 PM75.2°54.3°
08/30 - 08:30 PM76.3°53.8°
08/30 - 08:15 PM77.2°53.2°
08/30 - 08:00 PM78.4°53.5°
08/30 - 07:45 PM79.7°54.1°
08/30 - 07:30 PM81.5°55.4°
08/30 - 07:15 PM83.6°56.0°
08/30 - 07:00 PM85.8°57.4°
08/30 - 06:45 PM87.6°56.3°
08/30 - 06:30 PM89.1°55.9°
08/30 - 06:15 PM90.2°55.5°
08/30 - 06:00 PM91.1°55.6°
08/30 - 05:45 PM91.9°54.9°
08/30 - 05:30 PM92.1°53.7°
08/30 - 05:15 PM93.8°53.4°
08/30 - 05:00 PM94.7°53.2°
08/30 - 04:45 PM96.1°53.3°
08/30 - 04:30 PM96.7°53.4°
08/30 - 04:15 PM97.7°53.5°
08/30 - 04:00 PM97.3°53.8°
08/30 - 03:45 PM97.0°53.2°
08/30 - 03:30 PM96.7°53.1°
08/30 - 03:15 PM96.2°53.1°
08/30 - 03:00 PM96.3°52.8°
08/30 - 02:45 PM95.4°50.8°
08/30 - 02:30 PM96.2°50.8°
08/30 - 02:15 PM96.2°51.8°
08/30 - 02:00 PM94.6°51.7°
08/30 - 01:45 PM94.1°53.2°
08/30 - 01:30 PM93.6°53.5°
08/30 - 01:15 PM90.7°53.0°
08/30 - 01:00 PM91.2°52.5°
08/30 - 12:45 PM91.8°53.1°